Lid_Strength_Index
-1 -0 0 -0 0 0 0 0 0 -0 0 0 -0 -0 0 1 1 5 7 5 2 -1 1 5 5 6 6 5 5 6 8 10 10 11 9 8 9 7 7 8 7 7 7 6 5
-0 1 0 1 1 1 1 1 0 0 0 0 -0 -0 1 1 5 6 3 -1 -1 -0 6 6 6 6 6 7 6 7 9 10 9 9 9 8 8 8 8 7 7 7 5 5 5
1 1 1 1 1 1 1 1 1 1 0 0 -0 -0 1 2 6 7 1 -0 -0 2 6 6 6 6 7 7 8 8 9 9 9 9 9 8 8 8 8 8 7 8 7 6 6
1 1 2 2 2 2 1 1 1 1 0 0 -0 0 2 5 10 6 1 1 2 6 6 7 6 7 8 8 9 10 9 9 9 9 9 9 9 9 9 8 7 7 7 5 7
1 2 2 2 2 2 2 1 1 1 1 0 -0 1 4 7 8 6 3 4 6 7 7 8 8 8 9 8 9 10 9 10 10 10 10 9 9 10 9 7 6 6 6 7 8
2 2 3 3 3 2 2 1 1 1 0 0 -0 2 6 8 6 6 5 6 7 7 7 7 8 8 8 9 10 10 10 10 10 10 11 10 10 10 8 7 7 7 7 8 9
2 3 3 3 3 3 2 1 1 1 0 -0 1 4 6 7 6 5 6 7 7 7 7 8 8 8 8 9 10 11 11 9 10 10 11 10 10 11 8 8 8 7 8 9 9
3 3 3 4 3 3 2 1 1 1 0 1 2 4 7 5 5 4 5 7 7 7 8 8 8 8 9 9 10 11 11 13 10 10 11 10 13 9 8 9 9 9 9 10 10
3 4 4 4 3 3 2 1 1 1 0 1 4 5 8 4 5 5 6 8 8 8 9 9 8 10 9 10 11 11 13 13 13 10 11 11 12 9 9 10 10 10 11 11 10
4 4 4 4 3 2 2 1 1 2 4 5 5 7 6 7 6 6 6 8 8 9 9 8 9 10 9 11 15 13 13 13 14 12 11 12 11 10 10 10 11 11 11 11 11
4 4 4 4 3 2 3 5 7 6 6 7 8 8 8 5 6 7 8 8 8 8 11 10 12 12 12 12 12 12 13 14 13 11 12 12 12 11 11 12 12 12 13 12 11
4 4 4 4 3 2 4 6 7 7 9 7 7 7 6 6 9 8 7 9 9 11 10 12 14 12 12 12 12 13 14 14 12 11 13 13 14 12 12 14 13 13 13 13 12
4 4 4 4 3 4 6 7 6 5 9 9 8 8 7 8 10 9 8 9 10 11 12 14 14 12 12 13 14 14 14 14 15 14 13 14 15 14 13 13 14 13 13 12 12
4 4 5 4 6 5 7 5 5 5 10 10 9 8 9 9 11 9 10 10 10 12 13 14 12 13 13 14 14 15 14 14 15 16 18 14 20 15 13 15 15 14 13 13 12
4 5 5 5 7 7 6 5 6 7 16 9 9 7 9 10 10 10 9 10 12 13 14 15 14 14 14 14 13 14 14 15 16 17 17 17 18 15 13 16 16 14 13 12 12
5 5 5 6 6 6 6 6 8 9 16 11 9 10 10 11 11 10 11 10 11 13 13 14 13 13 13 13 14 15 16 15 16 17 20 19 20 18 17 18 16 14 13 12 12
5 5 5 6 8 5 5 8 10 14 10 12 12 11 12 12 12 12 13 13 15 17 17 15 14 14 14 15 14 16 17 20 21 20 20 18 20 18 17 16 15 15 14 12 11
5 5 5 5 5 5 7 8 15 11 11 11 11 12 12 13 13 14 15 15 15 15 16 18 19 15 15 16 18 17 17 21 26 23 22 19 22 18 16 14 14 13 12 12 11
5 6 5 5 5 5 10 13 12 11 11 12 12 13 14 13 14 15 16 16 15 15 17 19 19 17 18 16 16 17 19 18 22 23 24 21 19 16 15 15 14 14 13 12 12
7 7 8 5 4 7 12 12 12 10 11 11 12 11 13 13 14 16 17 15 16 16 16 17 20 18 18 17 18 19 17 21 20 26 27 22 21 20 17 16 16 15 14 13 12
7 12 8 4 5 8 14 14 13 12 10 12 12 12 13 14 14 16 17 16 16 18 16 18 19 20 19 20 20 20 21 21 21 22 25 26 22 15 16 15 15 15 13 12 11
9 13 6 5 10 10 13 13 12 12 11 11 11 12 13 13 16 17 17 16 16 17 19 19 20 22 21 20 19 19 20 21 23 25 23 23 24 15 14 14 13 13 13 12 10
10 11 5 6 13 13 12 12 11 12 12 12 12 12 12 15 17 16 16 17 17 18 19 19 21 23 24 22 20 21 21 20 20 21 24 25 21 14 13 14 13 13 13 12 11
10 14 9 8 9 11 11 12 13 10 11 11 12 13 16 17 17 18 18 19 18 18 17 18 21 21 23 21 21 23 21 20 21 23 23 22 20 17 16 15 14 13 13 12 12
10 12 11 13 12 11 11 11 12 13 12 12 16 15 17 18 19 19 18 19 18 18 18 19 23 21 21 21 20 21 21 20 21 20 23 21 20 17 15 15 13 12 13 13 12
8 12 11 11 9 12 12 13 13 12 14 15 16 17 17 17 17 19 19 19 19 19 19 19 22 22 24 21 21 22 21 20 20 19 20 19 19 14 14 12 13 13 14 13 13
8 9 10 9 11 12 11 12 12 11 13 12 15 17 18 16 15 16 16 16 18 20 20 21 22 24 23 23 23 25 22 20 20 19 19 21 17 15 15 14 13 14 13 14 15